STARLINK-6363, 57375

Orbit data source: Space-Track

STARLINK-6363, 57375 is a payload satellite owned by SpaceX/Seattle (US) in LEO that was launched on Sun, 16 Jul 2023 UTC via an FALCON 9 launch vehicle from the Air Force Eastern Test Range (AFETR). Payload-class satellites include a variety of spacecraft equipped with specific instruments for various scientific and technological missions. These include communications satellites like Starlink; space stations such as the ISS; scientific satellites like the Hubble; Earth observation satellites from companies like Planet Labs, Umbra, and HawkEye 360; GPS; miniature CubeSats for education and research; and military/defense satellites.

Loading next visibility...
Identifier
57375, 2023-099AZ
Orbit
LEO
Country
Flag of USUS
Related business
Manufacturer
SpaceX/Seattle
Mission
Operational Commercial Communications
Bus & Motor
STARLINK, Unknown motor
Mass
305 kg wet, ~290 kg dry
Launch date (UTC)
2023-07-16 (3 years ago)
Launch vehicle
FALCON 9
Launch site
Air Force Eastern Test Range (AFETR)
Object type
Payload
Rocket body
Debris
Shape & HBR
Box + 1 Pan, 10.1 m
Radar Cross Section
11.087 m², Large (>1 m²)

Expand to show TLE details & history
Last TLE update: 3 days ago

TLE from 3 days ago
0 STARLINK-6363
1 57375U 23099AZ  26170.99776018 -.00000457  00000-0 -70644-5 0  9997
2 57375  43.0080  24.0926 0002262 292.7988  67.2624 15.27573244161841
Epoch: 2026-06-19T23:56Z
TLE epoch observation values (Epoch: 2026-06-19T23:56:46.479Z)
Latitude
-0.00007°
Longitude
116.68016°
Altitude
482.246 km
Speed
7.626 km/s
True Right ascension
01h 36m 22s
True Declination
0° 00' 00"
Sunlit
Object was in daylight at epoch
Visualization orbit readout
Latitude
Unknown
Longitude
Unknown
Altitude
Unknown
Speed
Unknown
Apparent Right ascension
Unknown
Apparent Declination
Unknown
Sunlit
N/A
Visualization observer readout
Local Sidereal Time
23:07:48
Azimuth
Unknown
Elevation
Unknown
Doppler factor
Unknown
Orbital elements
Apogee altitude
486.566 km
Perigee altitude
483.461 km
Semi-major axis
6,863.15 km
Eccentricity
0.00023
Inclination
43.008°
RAAN
24.0926°
Arg. of periapsis
292.7988°
True anomaly
67.28631°
Mean anomaly
67.2624°
Eccentric anomaly
67.27435°
Mean motion
3.81731 °/min
Orbital period
94.31 mins
BSTAR
-0.0000070644
Loading maneuver chart data...
Computing Atmospheric mass density...
Loading historical data...
Loading historical data...
Loading historical data...
Loading historical data...
Loading historical data...
Loading historical data...
Loading historical data...

Documentation

Showing up to 5 results
|